Location: Unspecified
(0.0000°N, 0.0000°E)
Time: 09:26:06
(UTC+00:00)

Courier 1B Rocket - Pass Details

Date: 21 December 2018
Orbit: 920 x 1202 km, 28.2° (Epoch: 22 March)

Event Time Altitude Azimuth Distance (km) Brightness Sun altitude
Rises 03:50:27 0° 253° (WSW) 3,666 - -29.0°
Reaches altitude 10° 03:53:18 10° 260° (W) 2,682 - -28.3°
Maximum altitude 03:59:20 43° 330° (NNW) 1,274 - -27.0°
Exits shadow 04:01:03 36° 8° (N) 1,431 5.7 -26.6°
Drops below altitude 10° 04:05:12 10° 41° (NE) 2,599 7.4 -25.7°
Sets 04:07:55 0° 48° (NE) 3,541 8.2 -25.1°
